Stations météo

réclame
Mon MeteoGroup
Lossiemouth, Grande-Bretagne (3068): Température de l'air & dewpoint: 11.11.2017 17:00:00 - 17.11.2017 17:00:00 (GMT)Lossiemouth, Grande-Bretagne (3068): Vitesse du vent & gusts: 11.11.2017 17:00:00 - 17.11.2017 17:00:00 (GMT)Lossiemouth, Grande-Bretagne (3068): Direction du vent: 11.11.2017 17:00:00 - 17.11.2017 17:00:00 (GMT)Lossiemouth, Grande-Bretagne (3068): reduced air pressure: 11.11.2017 17:00:00 - 17.11.2017 17:00:00 (GMT)Lossiemouth, Grande-Bretagne (3068): visibility: 11.11.2017 17:00:00 - 17.11.2017 17:00:00 (GMT)Lossiemouth, Grande-Bretagne (3068): Quantités de précipitations: 11.11.2017 17:00:00 - 17.11.2017 17:00:00 (GMT)
Date & Time tt [°C] td [°C] ff [km/h] ff [knt] fx [km/h] fx [knt] dd ppp [hPa] vv [km] rr [mm]
17.11.2017 17:00:00 7,0 3,0 31 17 - - W - 10 -
17.11.2017 16:00:00 7,0 2,4 26 14 52 28 WSW 1014,9 10 0,0
17.11.2017 15:00:00 8,1 2,3 35 19 59 32 W 1014,9 10 0,0
17.11.2017 14:00:00 8,3 2,7 35 19 55 30 W 1015,5 10 0,0
17.11.2017 13:00:00 8,7 2,2 31 17 55 30 WSW 1016,3 10 0,0
17.11.2017 12:00:00 8,3 2,0 35 19 54 29 WSW 1016,5 10 0,0
17.11.2017 11:00:00 7,3 1,9 29 16 - - W 1016,9 10 0,0
17.11.2017 10:00:00 7,1 1,9 29 16 - - WSW 1017,1 10 0,0
17.11.2017 09:00:00 6,2 2,0 29 16 - - WSW 1017,4 10 0,0
17.11.2017 08:00:00 5,8 1,7 16 9 - - WSW 1017,7 10 0,0
17.11.2017 07:00:00 5,4 1,8 18 10 - - SW 1018,3 10 0,0
17.11.2017 06:00:00 5,1 1,5 24 13 - - SW 1018,2 10 0,0
17.11.2017 05:00:00 5,5 1,2 21 11 - - SW 1018,5 10 0,0
17.11.2017 04:00:00 5,3 0,8 28 15 - - WSW 1018,9 10 0,0
17.11.2017 03:00:00 4,7 0,2 34 18 - - SW 1019,1 10 0,0
17.11.2017 02:00:00 4,7 -0,4 26 14 - - SW 1019,5 10 0,0
17.11.2017 01:00:00 3,9 -0,2 26 14 - - WSW 1019,7 10 0,0
17.11.2017 00:00:00 4,3 -0,5 24 13 - - SW 1020,2 10 0,0
16.11.2017 23:00:00 3,7 -0,4 26 14 - - WSW 1019,9 10 0,0
16.11.2017 22:00:00 3,3 0,3 24 13 - - WSW 1020,1 10 0,0
16.11.2017 21:00:00 4,3 0,4 31 17 - - WSW 1019,6 10 0,0
16.11.2017 20:00:00 3,2 0,4 29 16 - - WSW 1018,9 10 0,0
16.11.2017 19:00:00 3,5 0,6 26 14 48 26 WSW 1018,5 10 0,0
16.11.2017 18:00:00 5,1 0,5 34 18 50 27 W 1017,7 10 0,0
16.11.2017 17:00:00 5,7 1,0 31 17 59 32 W 1017,3 10 0,0
16.11.2017 16:00:00 5,4 1,0 34 18 48 26 W 1016,3 10 0,0
16.11.2017 15:00:00 5,6 0,8 34 18 55 30 W 1015,6 10 0,0
16.11.2017 14:00:00 6,7 0,6 31 17 54 29 W 1014,8 10 0,0
16.11.2017 13:00:00 5,5 1,7 34 18 54 29 WSW 1013,9 10 0,0
16.11.2017 12:00:00 5,5 1,2 41 22 57 31 W 1013,5 10 0,0
16.11.2017 11:00:00 5,4 1,5 35 19 52 28 WSW 1012,6 10 0,0
16.11.2017 10:00:00 4,9 2,1 28 15 48 26 WSW 1011,3 10 0,0
16.11.2017 09:00:00 5,6 0,8 42 23 55 30 W 1010,1 10 0,0
16.11.2017 08:00:00 6,4 2,6 31 17 - - W 1008,6 10 0,6
16.11.2017 07:00:00 7,0 4,8 24 13 - - WSW 1007,0 10 0,2
16.11.2017 06:00:00 7,5 6,3 18 10 - - WSW 1006,2 10 0,0
16.11.2017 05:00:00 8,2 7,0 16 9 55 30 WSW 1005,5 10 1,6
16.11.2017 04:00:00 11,6 6,3 34 18 50 27 SW 1004,2 10 0,0
16.11.2017 03:00:00 11,2 6,2 31 17 55 30 SSW 1005,0 10 0,0
16.11.2017 02:00:00 11,4 5,8 35 19 57 31 SSW 1005,9 10 0,0
16.11.2017 01:00:00 10,7 5,7 37 20 55 30 SW 1007,1 10 0,0
16.11.2017 00:00:00 10,3 5,5 34 18 48 26 SW 1008,9 10 0,0
15.11.2017 23:00:00 9,5 5,1 28 15 48 26 SSW 1010,1 10 0,0
15.11.2017 22:00:00 8,2 4,3 15 8 - - S 1011,2 10 0,0
15.11.2017 21:00:00 8,3 3,9 18 10 - - S 1012,9 10 0,0
15.11.2017 20:00:00 7,5 3,9 11 6 - - SE 1014,1 10 0,0
15.11.2017 19:00:00 6,6 3,8 15 8 - - SSE 1015,0 10 -
15.11.2017 18:00:00 6,5 3,6 13 7 - - SSE 1016,3 10 0,0
15.11.2017 17:00:00 6,5 3,5 13 7 - - SSE 1017,3 10 0,0
15.11.2017 16:00:00 6,2 3,5 9 5 - - SSE 1018,5 10 0,0
15.11.2017 15:00:00 6,7 3,6 11 6 - - SSE 1019,3 10 0,0
15.11.2017 14:00:00 7,2 4,1 9 5 - - S 1020,3 10 0,0
15.11.2017 13:00:00 7,0 3,7 9 5 - - S 1021,0 10 0,0
15.11.2017 12:00:00 5,7 3,2 11 6 - - SE 1021,7 10 0,0
15.11.2017 11:00:00 4,8 2,8 5 3 - - SSE 1022,3 10 0,0
15.11.2017 10:00:00 3,4 1,8 13 7 - - SW 1022,3 10 0,0
15.11.2017 09:00:00 2,9 1,5 8 4 - - S 1022,0 10 0,0
15.11.2017 08:00:00 2,5 1,1 13 7 - - WSW 1021,6 10 0,0
15.11.2017 07:00:00 2,5 1,5 9 5 - - SW 1021,3 10 0,0
15.11.2017 06:00:00 1,5 1,1 8 4 - - S 1021,1 10 0,0
15.11.2017 05:00:00 3,6 2,8 4 2 - - S 1020,7 10 0,0
15.11.2017 04:00:00 3,0 1,6 21 11 - - WSW 1020,0 10 0,0
15.11.2017 03:00:00 4,7 3,2 18 10 - - SW 1019,9 10 0,0
15.11.2017 02:00:00 5,7 4,2 15 8 - - WNW 1019,4 10 -
15.11.2017 01:00:00 5,8 4,3 21 11 - - SW 1018,7 10 0,0
15.11.2017 00:00:00 6,5 4,3 13 7 - - W 1018,5 10 0,0
14.11.2017 23:00:00 6,7 3,9 22 12 - - WSW 1017,6 10 0,2
14.11.2017 22:00:00 6,4 3,5 21 11 - - WSW 1017,2 10 0,0
14.11.2017 21:00:00 5,8 2,9 21 11 - - SW 1016,6 10 0,0
14.11.2017 20:00:00 5,4 2,8 18 10 - - WSW 1016,5 10 0,0
14.11.2017 19:00:00 6,3 3,1 22 12 - - WSW 1016,3 10 0,0
14.11.2017 18:00:00 6,9 4,2 11 6 - - WSW 1016,1 10 0,0
14.11.2017 17:00:00 6,2 4,2 18 10 - - WSW 1015,6 10 0,0
14.11.2017 16:00:00 7,9 3,8 11 6 - - SSE 1015,6 10 0,0
14.11.2017 15:00:00 8,0 4,8 21 11 - - WSW 1015,7 10 0,0
14.11.2017 14:00:00 8,6 5,0 11 6 - - WSW 1015,7 10 0,0
14.11.2017 13:00:00 9,0 5,4 16 9 - - WSW 1015,6 10 0,0
14.11.2017 12:00:00 8,0 5,3 21 11 - - WSW 1016,0 10 0,0
14.11.2017 11:00:00 8,4 6,3 13 7 - - SW 1016,1 10 0,0
14.11.2017 10:00:00 7,0 6,1 13 7 - - WSW 1015,8 10 0,0
14.11.2017 09:00:00 6,8 6,2 13 7 - - WSW 1015,7 10 0,2
14.11.2017 08:00:00 6,6 5,5 15 8 - - WSW 1015,2 10 -
14.11.2017 07:00:00 5,0 4,5 16 9 - - WSW 1014,4 10 0,0
14.11.2017 06:00:00 6,5 5,8 21 11 - - W 1013,9 10 0,0
14.11.2017 05:00:00 7,3 6,2 15 8 - - WSW 1013,6 10 0,0
14.11.2017 04:00:00 6,9 5,7 22 12 - - W 1012,7 10 0,0
14.11.2017 03:00:00 5,7 5,0 15 8 - - WSW 1012,7 10 0,0
14.11.2017 02:00:00 7,2 5,6 15 8 - - WSW 1012,3 10 0,0
14.11.2017 01:00:00 8,0 6,7 26 14 - - WSW 1011,4 10 0,0
14.11.2017 00:00:00 8,6 6,4 22 12 - - W 1011,0 10 0,8
13.11.2017 23:00:00 8,5 7,6 15 8 - - W 1011,0 6 0,2
13.11.2017 22:00:00 8,8 8,1 28 15 - - W 1010,5 4,0 0,2
13.11.2017 21:00:00 7,9 6,4 16 9 - - W 1009,8 4,0 0,0
13.11.2017 20:00:00 7,7 5,4 22 12 - - SW 1009,6 10 0,2
13.11.2017 19:00:00 7,4 5,3 22 12 - - SW 1010,7 10 0,2
13.11.2017 18:00:00 7,0 4,6 24 13 - - SW 1011,4 10 0,6
13.11.2017 17:00:00 6,0 4,3 21 11 - - SW 1012,4 10 -
13.11.2017 16:00:00 5,3 3,4 18 10 - - SSW 1013,7 10 1,0
13.11.2017 15:00:00 4,2 2,8 9 5 - - S 1015,7 10 1,0
13.11.2017 14:00:00 4,3 2,2 15 8 - - S 1017,4 10 0,8
13.11.2017 13:00:00 4,6 1,2 15 8 - - S 1019,1 10 0,0
13.11.2017 12:00:00 4,2 1,3 13 7 - - S 1020,3 10 0,0
13.11.2017 11:00:00 3,0 1,6 13 7 - - SSE 1021,8 10 0,0
13.11.2017 10:00:00 1,7 1,1 13 7 - - SW 1023,2 10 0,1
13.11.2017 09:00:00 2,4 1,1 21 11 - - WSW 1024,0 10 0,4
13.11.2017 08:00:00 3,3 -0,5 16 9 - - WSW 1023,6 10 0,0
13.11.2017 07:00:00 2,6 -0,3 15 8 - - SW 1024,0 10 0,0
13.11.2017 06:00:00 2,6 -0,5 16 9 - - WSW 1024,2 10 0,0
13.11.2017 05:00:00 2,3 -0,5 16 9 - - WSW 1024,3 10 0,0
13.11.2017 04:00:00 1,9 -1,0 21 11 - - WSW 1024,4 10 0,0
13.11.2017 03:00:00 2,3 -0,1 16 9 - - WSW 1024,9 10 -
13.11.2017 02:00:00 4,4 1,5 18 10 - - W 1024,8 10 0,0
13.11.2017 01:00:00 4,8 1,1 18 10 - - NW 1024,9 10 0,0
13.11.2017 00:00:00 4,9 1,5 24 13 - - NW 1024,7 10 0,0
12.11.2017 23:00:00 5,2 1,3 29 16 - - NW 1024,3 10 0,0
12.11.2017 22:00:00 5,3 0,8 31 17 - - NNW 1023,8 10 0,0
12.11.2017 21:00:00 5,5 1,2 26 14 50 27 NNW 1023,6 10 -
12.11.2017 20:00:00 5,5 1,2 28 15 - - NNW 1023,0 10 0,0
12.11.2017 19:00:00 5,5 2,3 31 17 57 31 NNW 1022,4 10 0,2
12.11.2017 18:00:00 5,6 1,9 35 19 52 28 NNW 1021,1 10 0,0
12.11.2017 17:00:00 5,4 2,9 34 18 55 30 NNW 1020,1 10 0,0
12.11.2017 16:00:00 5,7 1,8 35 19 57 31 NNW 1018,8 10 0,0
12.11.2017 15:00:00 6,4 2,4 35 19 57 31 NW 1018,0 10 0,0
12.11.2017 14:00:00 6,1 1,9 34 18 54 29 NW 1017,0 10 0,0
12.11.2017 13:00:00 6,0 0,8 39 21 55 30 NNW 1016,4 10 -
12.11.2017 12:00:00 6,0 1,7 34 18 57 31 NNW 1015,5 10 0,0
12.11.2017 11:00:00 6,5 0,9 35 19 57 31 NNW 1014,3 10 0,0
12.11.2017 10:00:00 6,0 0,4 37 20 55 30 NNW 1013,0 10 0,0
12.11.2017 09:00:00 6,3 0,4 39 21 55 30 NNW 1011,7 10 0,0
12.11.2017 08:00:00 4,5 2,7 29 16 50 27 WNW 1010,3 10 0,0
12.11.2017 07:00:00 5,1 2,4 35 19 48 26 NW 1009,1 10 0,0
12.11.2017 06:00:00 4,4 2,2 29 16 - - WNW 1008,3 10 0,2
12.11.2017 05:00:00 4,0 1,9 16 9 - - W 1007,5 10 0,2
12.11.2017 04:00:00 4,4 2,4 34 18 48 26 NW 1007,0 10 0,2
12.11.2017 03:00:00 4,6 1,8 26 14 - - W 1006,5 10 0,0
12.11.2017 02:00:00 4,6 1,1 26 14 - - WNW 1006,7 10 0,0
12.11.2017 01:00:00 5,2 0,1 22 12 - - W 1006,8 10 0,0
12.11.2017 00:00:00 5,0 0,1 21 11 - - W 1007,2 10 0,0
11.11.2017 23:00:00 3,3 0,5 22 12 - - WSW 1007,2 10 0,0
11.11.2017 22:00:00 3,4 0,6 26 14 - - W 1007,5 10 0,0
11.11.2017 21:00:00 2,6 0,5 26 14 - - WSW 1008,0 10 0,0
11.11.2017 20:00:00 3,7 1,2 22 12 - - W 1008,3 10 -
11.11.2017 19:00:00 2,6 0,9 16 9 - - WSW 1009,0 10 0,0
11.11.2017 18:00:00 5,0 0,0 22 12 - - W 1008,9 10 0,0
11.11.2017 17:00:00 5,3 0,1 26 14 - - W 1008,5 10 0,0

tt = Température de l'air
td = dewpoint
ff = Vitesse du vent
fx = gusts
dd = Direction du vent
ppp = reduced air pressure
vv = visibility
rr = Quantités de précipitations

stations d'obs. à proximité